Regional Weather Roundup
Issued by NWS Pendleton, OR

Home | Current Version | Previous Version | Text Only | Print | Product List | Glossary On
Versions: 1 2 3 4 5 6 7 8 9 10 11 12 13 14 15 16 17 18 19 20 21 22 23 24 25 26 27 28 29 30 31 32 33 34 35 36 37 38 39 40 41 42 43 44 45 46 47 48 49 50
623
ASUS46 KPDT 101825
RWRPDT
PENDLETON REGIONAL WEATHER ROUNDUP
NATIONAL WEATHER SERVICE PENDLETON OREGON
1000 AM PST WED FEB 10 2016

NOTE: FAIR INDICATES FEW OR NO CLOUDS BELOW 12,000 FEET WITH NO
SIGNIFICANT WEATHER AND/OR OBSTRUCTIONS TO VISIBILITY.

# INDICATES UNOFFICIAL STATION AND DATA

WAZ520-101910-
EAST SLOPES OF WASHINGTON CASCADES

CITY            SKY/WX      TMP DP  RH  WIND    PRES   REMARKS
#BUMPING DAM    N/A         27  N/A N/A CALM    N/A
#CLE ELUM HS    N/A         34  30  85  CALM    30.19S
#CLE ELUM 2NW   N/A         31  30  96  SW1     N/A
#CLE ELUM LAKE  N/A         36  33  89  CALM    30.27R
#CLIFFDEL 2NW   N/A         30  29  96  SW1     N/A
#GLENWOOD       N/A         32  31  96  CALM    30.33S
#MANASTASH CYN  N/A         35  31  85  CALM    30.17F
#NELSON         N/A         N/A N/A N/A CALM    30.22
#NELSON 3SW     N/A         34  33  96  CALM    30.52R
#RONALD 2NW     N/A         34  N/A N/A CALM    30.07R
#SNOWDEN        N/A         36  31  82  CALM    N/A
#TEANAWAY 4NE   N/A         31  29  92  E2      N/A
#TROUT LAKE 1NE N/A         35  34  96  CALM    30.32R
#TROUT LAKE 1E  N/A         34  34  100 CALM    30.22R
$$

WAZ521-101910-
SIMCOE HIGHLANDS

CITY            SKY/WX      TMP DP  RH  WIND    PRES   REMARKS
#BICKLETON HS   N/A         46  37  71  CALM    N/A
#CENTERVILLE 1SWN/A         34  32  92  CALM    30.31R
#GOLDENDALE     N/A         35  34  96  CALM    N/A
#GOLDENDALE 1NE N/A         38  34  85  CALM    N/A
#GOODNOE HILLS  N/A         42  37  82  SW6     30.17S
#LYLE 6NE       N/A         38  36  92  CALM    30.28R
$$

WAZ026-101910-
KITTITAS VALLEY

CITY            SKY/WX      TMP DP  RH  WIND    PRES   REMARKS
ELLENSBURG AP   MOCLDY      30  27  88  CALM    30.26F FOG
6HR MIN TEMP:   22; 6HR MAX TEMP:   30;

#ELLENSBURG CWU N/A         30  27  88  CALM    30.30F
#ELLENSBURG 3NE N/A         28  27  96  CALM    30.25F
#ELLENSBURG     N/A         32  31  96  CALM    N/A
#ELLENSBURG 1E  N/A         27  N/A N/A CALM    N/A
#KITTITAS 4N    N/A         35  31  85  CALM    30.28S
#KITTITAS 3S    N/A         24  23  96  CALM    30.36F
#THORP 6N       N/A         33  31  92  CALM    30.33S
$$

WAZ027-101910-
YAKIMA VALLEY

CITY            SKY/WX      TMP DP  RH  WIND    PRES   REMARKS
SUNNYSIDE AP    CLOUDY      38  35  89  CALM    30.29F
YAKIMA AIRPORT  CLOUDY      38  32  79  CALM    30.28F
6HR MIN TEMP:   31; 6HR MAX TEMP:   38;

YAKIMA-VAGABOND MOSUNNY     34  32  92  W2      30.25S
6HR MIN TEMP:   29; 6HR MAX TEMP:   37;

#DONALD 2NE     N/A         43  27  53  SW1     29.13S
#GRANDVIEW      N/A         41  37  86  CALM    30.33S
#MABTON         N/A         37  36  96  N1      30.29F
#MOXEE 2E       N/A         30  29  96  CALM    30.22F
#NACHES 2SW     N/A         40  35  82  CALM    30.26R
#OUTLOOK DOT    N/A         N/A N/A N/A E1      N/A
#SELAH 8E       N/A         39  36  89  E2      N/A
#TERRACE HTS    N/A         37  34  89  CALM    30.28S
#TOPPENISH      N/A         38  36  92  CALM    30.23R
#WEST VALLEY    N/A         37  33  85  CALM    30.31R
#W YAKIMA       N/A         38  33  82  NW1     30.32S
#WHITE SWAN 5E  N/A         36  34  92  CALM    30.33R
#WILEY CITY 3W  N/A         37  31  79  CALM    30.24R
$$

WAZ028-101910-
LOWER COLUMBIA BASIN...WASHINGTON

CITY            SKY/WX      TMP DP  RH  WIND    PRES   REMARKS
HANFORD         CLOUDY      40  35  82  N3      30.29R
6HR MIN TEMP:   30; 6HR MAX TEMP:   41;

PASCO           CLOUDY      38  34  85  CALM    30.34R
6HR MIN TEMP:   26; 6HR MAX TEMP:   38;

PROSSER AWOS    N/A         39  36  89  NE3     30.32F
RICHLAND AWOS   CLOUDY      38  36  92  CALM    30.32S
#BENTON CITY    N/A         36  35  96  E5      30.24S
#CONNELL 5N     N/A         39  38  96  CALM    30.33R
#ELTOPIA 6NW    N/A         37  35  92  CALM    29.27R
#KAHLOTUS       N/A         35  34  96  CALM    30.33R
#KENNEWICK 3S   N/A         39  37  92  CALM    30.34R
#PATERSON       N/A         34  33  96  CALM    30.32R
#PROSSER        N/A         39  36  89  CALM    30.32S
#SAGEMOOR 2W    N/A         39  36  89  CALM    30.17R
#TOUCHET 2S     N/A         34  33  96  NW2     30.35R
#WEST PASCO     N/A         39  36  89  CALM    30.35R
$$

WAZ029-101910-
FOOTHILLS OF THE BLUES...WASHINGTON

CITY            SKY/WX      TMP DP  RH  WIND    PRES   REMARKS
WALLA WALLA AP  MOCLDY      42  37  82  W5      30.28R
6HR MIN TEMP:   32; 6HR MAX TEMP:   42;

#CLYDE 6NW      N/A         38  37  96  W7      30.34R
#DAYTON SCHOOL  N/A         43  33  67  CALM    30.27R
#LOWDEN 2SE     N/A         35  34  96  NW1     30.29R
#PLEASANT VIEW 1N/A         41  40  96  SW6     30.36R
#PRESCOTT       N/A         41  39  93  CALM    30.33R
#WHITMAN COLLEGEN/A         40  36  85  W3      30.38R
#WAITSBURG 5S   N/A         44  40  86  W3      30.41R
#WAITSBURG 8N   N/A         46  22  38  S6      30.12S
#WALLA WALLA 5E N/A         47  40  76  W2      N/A
#WALLA WALLA U  N/A         40  37  89  W2      30.34R
#WHITMAN MISSIONN/A         37  36  96  N1      30.36R
$$

WAZ030-101910-
BLUE MOUNTAINS...WASHINGTON

CITY            SKY/WX      TMP DP  RH  WIND    PRES   REMARKS
#DIXIE 5SE      N/A         48  35  60  W7      30.18R
#SKI BLUEWOOD   N/A         41  32  70  S1      30.25R
$$

ORZ009-041-WAZ024-101910-
COLUMBIA RIVER GORGE

CITY            SKY/WX      TMP DP  RH  WIND    PRES   REMARKS
HOOD RIVER AP   CLOUDY      39  36  89  CALM    30.31R
THE DALLES AP   CLOUDY      39  35  85  CALM    30.33R
6HR MIN TEMP:   32; 6HR MAX TEMP:   39;

#ARLINGTON AIRPON/A         40  37  89  CALM    30.33S
#ARLINGTON HS   N/A         40  36  85  CALM    30.24S
#LYLE           N/A         39  37  92  E1      30.35R
#MARYHILL 2W    N/A         38  38  100 CALM    N/A
#MOSIER 1S      N/A         40  36  85  CALM    30.32R
#MURDOCK        N/A         39  37  92  SW1     30.31R

$$

ORZ510-101910-
NORTH CENTRAL OREGON

CITY            SKY/WX      TMP DP  RH  WIND    PRES   REMARKS
#CHENOWITH 1W   N/A         40  38  92  CALM    N/A
#COW CYN RST AREN/A         44  33  65  CALM    N/A
#DUFUR 9E       N/A         37  35  92  CALM    30.34R
#GRASS VALLEY 1SN/A         43  39  86  S2      30.32F
#MAUPIN SCHOOL  N/A         37  35  92  CALM    30.32R
#MORO SCHOOL    N/A         42  42  100 CALM    30.27R
#SHANIKO 4NW    N/A         46  32  58  S14     30.25R WCI 40
#TYGH VALLEY 2NEN/A         37  34  89  N2      30.32S
#WAPANITIA AIRPON/A         37  36  96  CALM    30.34R
#WASCO AIRPORT  N/A         39  35  85  SE1     N/A
#WASCO 5NE      N/A         39  37  92  CALM    30.32S
$$

ORZ511-101910-
CENTRAL OREGON

CITY            SKY/WX      TMP DP  RH  WIND    PRES   REMARKS
BEND AIRPORT    CLOUDY      46  34  63  CALM    30.28R
MADRAS AIRPORT  CLOUDY      43  37  79  CALM    30.29S
PRINEVILLE AP   MOCLDY      48  32  54  SE3     30.30R
REDMOND AIRPORT CLOUDY      48  33  56  E5      30.28R
6HR MIN TEMP:   33; 6HR MAX TEMP:   48;

#ASHWOOD SCHOOL N/A         40  36  85  CALM    30.21F
#BEND 6E        N/A         45  32  60  CALM    30.31R
#BEND 1SW       N/A         44  34  68  SW2     N/A
#BEND-KIM LN    N/A         46  35  65  SW3     30.25R
#LAKE BILLY CHINN/A         44  N/A N/A N1      30.32F
#MADRAS         N/A         42  36  79  E3      N/A
#POWELL BUTTE 3EN/A         45  32  60  E6      N/A
#PRINEVILLE 3N  N/A         45  37  73  N2      30.32S
#WARM SPRINGS   N/A         36  35  96  W1      30.27R

$$


ORZ509-101910-
EAST SLOPES OF OREGON CASCADES

CITY            SKY/WX      TMP DP  RH  WIND    PRES   REMARKS
SISTERS AWOS    N/A         36  32  85  CALM    30.21S
#BLACK BUTTE RNCN/A         36  35  96  CALM    30.33R
#CAMP SHERMAN   N/A         35  30  82  CALM    30.44F
#LA PINE 4NW    N/A         41  32  70  CALM    30.40F
#SISTERS AIRPOR N/A         37  36  96  N1      30.17S
#SISTERS ODOT   N/A         35  N/A N/A CALM    N/A
#SISTERS 1NW    N/A         35  31  85  NE7     N/A
#SISTERS 3N     N/A         35  30  82  CALM    30.26R
#SUNRIVER       N/A         38  32  79  CALM    30.39S
#SUTTLE LK DOT  N/A         31  31  100 W22G39  N/A    WCI 18
#TUMALO 3W      N/A         42  35  76  CALM    30.16R
#WANOGA BUTTE D N/A         39  27  62  SW1     N/A

$$

ORZ044-101910-
LOWER COLUMBIA BASIN...OREGON

CITY            SKY/WX      TMP DP  RH  WIND    PRES   REMARKS
HERMISTON       MOCLDY      37  34  89  W5      30.32R
6HR MIN TEMP:   26; 6HR MAX TEMP:   37;

#BOARDMAN SCHOOLN/A         38  36  92  CALM    30.33R
#BOARDMAN 8SW   N/A         38  37  96  NW1     30.32S
#ECHO 8SW       N/A         41  37  86  CALM    30.32R
#I-84 EX 198 DOTN/A         40  37  89  E2      N/A
#IONE SCHOOL    N/A         40  26  57  CALM    30.25R
#IRRIGON 4NW    N/A         34  34  100 CALM    N/A
#UMATILLA SCHOOLN/A         34  34  100 CALM    30.33F
#UMATILLA       N/A         35  32  89  CALM    30.29R
$$

ORZ507-101910-
NORTHERN FOOTHILLS OF THE BLUES

CITY            SKY/WX      TMP DP  RH  WIND    PRES   REMARKS
PENDLETON AIRPT PTCLDY      42  36  79  W3      30.28R
6HR MIN TEMP:   27; 6HR MAX TEMP:   42;

#ADAMS 3WNW     N/A         41  36  82  S2      30.34R
#ATHENA         N/A         42  38  86  CALM    30.35R
#CAYUSE         N/A         41  37  86  W2      30.32R
#HELIX SCHOOL   N/A         42  39  89  CALM    30.32R
#HELIX 3N       N/A         48  39  71  N5      30.23R
#HELIX 6SW      N/A         39  36  89  NW1     30.27R
#HOLDMAN 5SE    N/A         41  38  89  W1      30.27R
#HOLDMAN 6E     N/A         40  36  85  CALM    30.14R
#M-F GROVE ELEM N/A         44  37  76  CALM    30.25R
#M-FREEWATER 5SEN/A         44  39  82  E2      30.27R
#PENDLETON DNTN N/A         38  33  82  CALM    30.31R
#PDT AQUATIC CTRN/A         40  34  79  CALM    30.28R
#PDT SUNRIDGE   N/A         39  35  85  CALM    30.31R
#PENDLETON 7NW  N/A         43  37  79  W5      27.03S
#PILOT ROCK     N/A         45  33  63  CALM    30.27R
#TUTUILLA       N/A         43  38  82  CALM    30.33R
#UMAPINE 2E     N/A         39  38  96  NW2     30.28R
#WESTON SCHOOL  N/A         42  37  82  N3      30.21R

$$

ORZ508-101910-
SOUTHERN FOOTHILLS OF THE BLUES

CITY            SKY/WX      TMP DP  RH  WIND    PRES   REMARKS
LEXINGTON       MOCLDY      45  37  73  SE3     30.31R
#CONDON SCHOOL  N/A         43  38  82  S6      30.20R
#CONDON 5W      N/A         46  33  60  S5      30.22R
#FOSSIL SCHOOL  N/A         48  38  68  CALM    30.19R
#HEPPNER EOC    N/A         44  37  76  CALM    30.26R
#HEPPNER 4NE    N/A         45  38  76  W2      30.31R
#LEXINGTON 2SE  N/A         45  39  79  CALM    30.27R
#MIKKALO        N/A         45  40  82  E1      30.35F
#OLEX 4N        N/A         40  38  92  S1      30.25F
#RUGGS 5NE      N/A         50  34  54  W3      30.43R
#RUGGS 2SW      N/A         49  36  61  W7      30.32R

$$

ORZ502-503-101910-
BLUE MOUNTAINS

CITY            SKY/WX      TMP DP  RH  WIND    PRES   REMARKS
MEACHAM         PTCLDY      43  29  57  CALM    30.28R
6HR MIN TEMP:   32; 6HR MAX TEMP:   43;

#LONG CREEK HS  N/A         40  37  89  CALM    N/A
#PIKES PEAK     N/A         46  31  56  S13     27.99S WCI 40
#TOLLGATE       N/A         39  31  73  CALM    30.11R
#TROY SCHOOL    N/A         37  32  82  W6      30.28S
#UKIAH          N/A         33  30  89  SW1     30.33R
#WESTON 4E      N/A         46  32  58  E13     30.24R WCI 40
$$

ORZ505-101910-
JOHN DAY BASIN

CITY            SKY/WX      TMP DP  RH  WIND    PRES   REMARKS
JOHN DAY        SUNNY       50  31  48  E9      30.31R
#DAYVILLE SCHOOLN/A         46  32  58  CALM    30.28R
#MITCHELL       N/A         47  38  71  CALM    30.41R
#MITCHELL 8NW   N/A         47  33  58  CALM    30.46R
#MONUMENT HS    N/A         42  30  62  SE3     30.26R
#MT. VERNON 5SE N/A         51  32  48  SW3     30.26R
#SPRAY SCHOOL   N/A         46  N/A N/A CALM    N/A
#WINLOCK        N/A         47  31  53  CALM    30.25R
$$

ORZ506-101910-
OCHOCO AND JOHN DAY HIGHLANDS

CITY            SKY/WX      TMP DP  RH  WIND    PRES   REMARKS
#BUCK CREEK DOT N/A         29  29  100 E12     N/A    WCI 19
#HORSE RIDGE DO N/A         44  30  58  SE10    N/A
#KEYES SMT DOT  N/A         44  31  60  NE2     N/A
#PAULINA SCHOOL N/A         36  32  85  CALM    30.29R
#PINE MTN OBS   N/A         43  26  51  SE10    N/A
#PRAIRIE CITY   N/A         48  33  56  CALM    30.28R
#SENECA         N/A         21  N/A N/A CALM    N/A
#SENECA 9NW     N/A         28  24  85  CALM    30.50R
$$

ORZ049-101910-
GRANDE RONDE VALLEY

CITY            SKY/WX      TMP DP  RH  WIND    PRES   REMARKS
LA GRANDE       PTCLDY      41  27  57  S20G32  30.35R WCI 32
#COVE           N/A         39  34  82  CALM    30.37R
#COVE SCHOOL    N/A         40  33  76  CALM    30.35R
#COVE 6NW       N/A         39  32  76  SE8     30.27R
#ELGIN 3N       N/A         40  28  62  S12     30.32R WCI 33
#ELGIN 1E       N/A         40  33  76  S6      N/A
#IMBLER SCHOOL  N/A         39  32  76  S12     30.30R WCI 32
#ISLAND CITY 4N N/A         45  44  96  CALM    30.25R
#UNION 1S       N/A         36  30  79  S20G31  30.37R WCI 25
$$

ORZ050-101910-
WALLOWA COUNTY

CITY            SKY/WX      TMP DP  RH  WIND    PRES   REMARKS
JOSEPH AIRPORT  FRZFOG      27  27  100 CALM    30.33S VSB 1/4
#ENTERPRISE AP  N/A         28  26  92  CALM    30.24R
#ENTERPRISE HS  N/A         27  26  96  CALM    30.32S
#IMNAHA SCHOOL  N/A         40  34  79  N7      30.29F
#IMNAHA 10S     N/A         41  33  73  CALM    30.25
#JOSEPH 3N      N/A         26  23  88  CALM    30.32S
#JOSEPH 3W      N/A         27  20  74  CALM    30.11R
#LOSTINE        N/A         29  27  92  CALM    30.30R
#MT HOWARD 8000 N/A         44  16  32  SW7     30.34R
#PROMISE 1S     N/A         33  29  85  N1      30.55R
#WALLOWA SCHOOL N/A         31  29  92  CALM    30.32R



$$



USA.gov is the U.S. government's official web portal to all federal, state and local government web resources and services.